Location: Cluj-Napoca
(46.7712°N, 23.6236°E)
Time: 10:41:25
(UTC+02:00)

First-Move - Pass Details

Date: 05 December 2021
Orbit: 574 x 664 km, 97.6° (Epoch: 20 January)

Event Time Altitude Azimuth Distance (km) Brightness Sun altitude
Rises 06:03:28 0° 2° (N) 3,003 ? -18.2°
Reaches altitude 10° 06:06:00 10° 349° (NNW) 2,093 ? -17.8°
Enters shadow 06:06:45 14° 342° (NNW) 1,860 ? -17.7°
